Regional Weather Roundup
Issued by NWS Mobile, AL

Home | Current Version | Previous Version | Text Only | Print | Product List | Glossary On
Versions: 1 2 3 4 5 6 7 8 9 10 11 12 13 14 15 16 17 18 19 20 21 22 23 24 25 26 27 28 29 30 31 32 33 34 35 36 37 38 39 40 41 42 43 44 45 46 47 48 49 50
000
ASUS44 KMOB 302110
RWRMOB
REGIONAL WEATHER ROUNDUP
NATIONAL WEATHER SERVICE MOBILE AL
400 PM CDT WED JUL 30 2014

NOTE: "FAIR" INDICATES FEW OR NO CLOUDS BELOW 12,000 FEET WITH NO
      SIGNIFICANT WEATHER AND/OR OBSTRUCTIONS TO VISIBILITY.

  * THESE STATIONS ARE PART OF THE UNIVERSITY OF SOUTH ALABAMA
    MESONET AND ARE NOT UNDER NWS OR FAA QUALITY CONTROL.

ALZ061>064-302200-
COASTAL ALABAMA

CITY           SKY/WX    TMP DP  RH WIND       PRES   REMARKS
MOBILE REG APT PTSUNNY   86  55  34 N8        30.01F
BROOKLEY FIELD SUNNY     86  60  41 NE10      30.01F
USA CAMPUS*      N/A     86  57  37 CALM      29.98F
DOG RIVER*     NOT AVBL


CITY           SKY/WX    TMP DP  RH WIND       PRES   REMARKS
MOUNT VERNON*  NOT AVBL
SARALAND*      NOT AVBL
BAY MINETTE*   NOT AVBL
LOXLEY*          N/A     84  55  37 N5        29.99F
ROBERTSDALE*     N/A     84  59  42 VRB2      29.99F
FAIRHOPE*        N/A     84  52  32 NW9       29.99F
ELBERTA*         N/A     84  73  70 NW6       29.98F
FOLEY*         NOT AVBL
GRAND BAY*       N/A     84  55  37 VRB6      29.99F
DAUPHIN ISLND* NOT AVBL
BON SCOUR NWR* NOT AVBL
GULF SHORES    SUNNY     85  56  37 W5        29.98F

$$

ALZ051>060-302200-
INTERIOR SOUTHWEST AND SOUTH CENTRAL ALABAMA

CITY           SKY/WX    TMP DP  RH WIND       PRES   REMARKS
GREENVILLE     SUNNY     85  53  33 N9        30.01F
EVERGREEN      SUNNY     87  53  31 N7        30.02S
CASTLEBERRY*   NOT AVBL
ATMORE*          N/A     82  57  42 NW8       30.02F
DIXIE*         NOT AVBL
ANDALUSIA/OPP  SUNNY     90  54  29 NE8       30.00F
ANDALUSIA*     NOT AVBL
FLORALA APT    SUNNY     87  56  34 VRB6      30.02S
FLORALA*         N/A     84  50  30 W13       29.97F

$$

FLZ001>006-302200-
WESTERN FLORIDA PANHANDLE

CITY           SKY/WX    TMP DP  RH WIND       PRES   REMARKS
PENSACOLA      MOSUNNY   84  57  39 VRB7      29.99F
NAS PENSACOLA  MOSUNNY   84  66  54 S12       29.98F
MILTON         MOSUNNY   86  56  35 NW6       29.99F
WHTNG S FIELD  MOSUNNY   87  57  35 N8        29.99F


CITY           SKY/WX    TMP DP  RH WIND       PRES   REMARKS
WALNUT HILL*   NOT AVBL
JAY*           NOT AVBL
DUKE FIELD     MOSUNNY   88  63  43 N5        29.98F
CRESTVIEW      SUNNY     87  54  32 NW8       30.00F
VALPARAISO     MOSUNNY   84  66  54 S10       29.97F
DESTIN         SUNNY     85  65  51 VRB7      29.98F

$$

MSZ076-079-302200-
INTERIOR SOUTHEAST MISSISSIPPI

CITY           SKY/WX    TMP DP  RH WIND       PRES   REMARKS
LEAKESVILLE*     N/A     82  52  34 N10         N/A
AGRICOLA*      NOT AVBL

$$

MARINE OBSERVATIONS

STATION/POSITION TIME  TEMP    WIND        PRES    WAVE
                       AIR SEA DIR/SP/G            HT/PER
                 (UTC) (F)     (DEG/KT/KT) (MB)    (FT/S)
PASCAGOULA       2100   86     330/  7/ 10 1015.6F
PETIT BOIS ISLND 2100   81     220/  6/  7 1016.2F
GRAND BAY        2000   81     180/  7     1017.0S
KATRINA CUT      2000   79     180/  4     1016.9F
CEDAR POINT      2000   80      90/  4     1016.3F
E DAUPHIN ISLAND 2000   80      20/  5/  6 1016.4F
MIDDLE BAY LIGHT 2000   83      20/ 12     1015.6S
USCG MOBILE BAY  2100   83 83   50/ 10/ 13 1014.9S
STATE DOCKS      2100   86 82              1015.8S
MEAHER PARK      2000   83     360/  5     1015.6F
WEEKS BAY        2000   85                   N/A
12 S ORANGE BCH  2100   80 85  240/  6/  8 1015.9F   1/ 4
PENSACOLA BAY    2100   85 86  190/  5/  8 1015.7F
64 S DAUPHIN ISL 2047   81 88   20/  6/  8 1016.1F
67 S FORT MORGAN 2000   82                 1015.9F

$$

SELECTED LOCATIONS ACROSS THE REGION

CITY           SKY/WX    TMP DP  RH WIND       PRES   REMARKS
NEW ORLEANS    MOSUNNY   87  61  41 N9        30.01F
GULFPORT       SUNNY     90  56  31 NW6       29.99F
PASCAGOULA AP  SUNNY     86  59  39 N7        30.00F
PASCAGOULA*      N/A     84  54  34 N6        29.99F
HATTIESBURG    SUNNY     85  55  35 CALM      30.03F
LAUREL         SUNNY     86  55  35 NW9       30.05F
MERIDIAN       SUNNY     85  52  32 NW9G17    30.04F
JACKSON        MOSUNNY   85  57  38 N7        30.05F
MONTGOMERY     SUNNY     87  53  31 N10G17    30.01F
TROY           SUNNY     86  52  30 NE9       30.02F
KINSTON*       NOT AVBL
GENEVA*          N/A     86  55  35 NW10      30.00F
ASHFORD*       NOT AVBL
DOTHAN         SUNNY     85  59  41 N6        30.03F
PANAMA CITY    MOSUNNY   89  62  40 SW7       29.96F

$$




USA.gov is the U.S. government's official web portal to all federal, state and local government web resources and services.